World > North America > United States > California > Berkeley   City of Berkeley, CA

Berkeley, CA Hourly Weather Forecast

Feedback E-mail the Weather

Quick Clicks

Weather World

24 Hour Forecast

Current Conditions - Overcast. Temperature is 54°F12°C, dew point 51°F11°C, humidity 89%. Wind direction is W at 3 mph5 km/h with visibility of 10 mi16 km. Barometric pressure is 29.98 in1015 mb.
Today - Mostly cloudy in the morning then becoming sunny. Highs in the mid 60s to lower 70s. West winds around 5 mph increasing to northwe.. Full Forecast
Tonight - Mostly clear in the evening then becoming mostly cloudy. Lows around 50. West winds 5 to 15 mph... Full Forecast

Berkeley Hourly Weather

24 Hour Weather Scroll
Fri, Apr 19
7:00 am
Fri, Apr 19
8:00 am
Fri, Apr 19
9:00 am
Fri, Apr 19
10:00 am
Fri, Apr 19
11:00 am
Fri, Apr 19
Noon
Fri, Apr 19
1:00 pm
Fri, Apr 19
2:00 pm
Fri, Apr 19
3:00 pm
Fri, Apr 19
4:00 pm
Fri, Apr 19
5:00 pm
Fri, Apr 19
6:00 pm
Fri, Apr 19
7:00 pm
Fri, Apr 19
8:00 pm
Fri, Apr 19
9:00 pm
Fri, Apr 19
10:00 pm
Fri, Apr 19
11:00 pm
Sat, Apr 20
Midnight
Sat, Apr 20
1:00 am
Sat, Apr 20
2:00 am
Sat, Apr 20
3:00 am
Sat, Apr 20
4:00 am
Sat, Apr 20
5:00 am
Sat, Apr 20
6:00 am
OvercastSunnySunnySunnySunnySunnySunnySunnySunnySunnySunnySunnySunnyClear Clear Clear Clear Overcast Overcast Clear Clear Clear Clear Clear
Overcast Sunny Sunny Sunny Sunny Sunny Sunny Sunny Sunny Sunny Sunny Sunny Sunny Clear Clear Clear Clear Overcast Overcast Clear Clear Clear Clear Clear
54°F12°C 56°F13°C 58°F14°C 60°F16°C 63°F17°C 64°F18°C 64°F18°C 64°F18°C 64°F18°C 63°F17°C 62°F17°C 60°F16°C 58°F14°C 56°F13°C 55°F13°C 54°F12°C 53°F12°C 53°F12°C 53°F12°C 52°F11°C 52°F11°C 51°F11°C 51°F11°C 51°F11°C
48°F
9°C
48°F
9°C
48°F
9°C
48°F
9°C
49°F
9°C
49°F
9°C
49°F
9°C
48°F
9°C
48°F
9°C
48°F
9°C
47°F
9°C
47°F
8°C
47°F
9°C
48°F
9°C
48°F
9°C
48°F
9°C
48°F
9°C
48°F
9°C
47°F
9°C
47°F
9°C
47°F
8°C
47°F
8°C
47°F
8°C
46°F
8°C
29.97 in
1015 mb
29.94 in
1014 mb
29.94 in
1014 mb
29.97 in
1015 mb
29.94 in
1014 mb
29.94 in
1014 mb
29.94 in
1014 mb
29.94 in
1014 mb
29.94 in
1014 mb
29.91 in
1013 mb
29.94 in
1014 mb
29.94 in
1014 mb
29.91 in
1013 mb
29.94 in
1014 mb
29.94 in
1014 mb
29.97 in
1015 mb
29.97 in
1015 mb
29.97 in
1015 mb
29.97 in
1015 mb
29.97 in
1015 mb
29.97 in
1015 mb
30 in
1016 mb
30 in
1016 mb
30.03 in
1017 mb
90%77%70%64%60%56%55%55%55%55%58%62%67%74%78%80%82%83%82%83%85%85%85%85%
WWSWWSWWSWWSWWSWWWSWWSWWSWWSWWSWWSWWSWWSWWSWSWSWWSWSWSWSWSSWSW
4 mph
6 km/h
2 mph
4 km/h
3 mph
5 km/h
4 mph
6 km/h
4 mph
7 km/h
6 mph
10 km/h
8 mph
13 km/h
9 mph
14 km/h
9 mph
14 km/h
9 mph
15 km/h
9 mph
14 km/h
8 mph
13 km/h
6 mph
9 km/h
5 mph
9 km/h
4 mph
7 km/h
4 mph
7 km/h
4 mph
7 km/h
4 mph
6 km/h
5 mph
8 km/h
6 mph
9 km/h
5 mph
9 km/h
5 mph
8 km/h
4 mph
7 km/h
5 mph
8 km/h
0%0%0%0%0%0%0%0%0%0%0%0%0%0%0%0%0%0%0%0%0%0%0%0%
10 mi
16 km
6 mi
10 km
6 mi
10 km
6 mi
10 km
6 mi
10 km
6 mi
10 km
6 mi
10 km
6 mi
10 km
6 mi
10 km
6 mi
10 km
6 mi
10 km
6 mi
10 km
6 mi
10 km
6 mi
10 km
6 mi
10 km
6 mi
10 km
6 mi
10 km
6 mi
10 km
6 mi
10 km
6 mi
10 km
6 mi
10 km
6 mi
10 km
6 mi
10 km
6 mi
10 km

Day/Time
Weather
Condition
Temperature
Dew Point
Pressure
Humidity
Wind Direction
Wind Speed
Prob Precip %
Visibility
POP = Probability of Precipitation. ** Indicates missing data/values from KOAK model statistics.

Trending Headlines

Trending Entertainment Headlines

Berkeley Radar Loop

Use the map search tool if you want to place a location marker on the radar map...

48 Hour API Forecast

Prob Precip % = Probability of Precipitation.

Berkeley 36 Hour Forecast

POP = Probability of Precipitation. ** Indicates missing data/values from model statistics.

E-mail the Berkeley Weather Forecast

Voice your opinion or tell us about page issues...

Berkeley CA Weather - 10:40 am

What are people saying?

Contact Us